Regional Weather Roundup
Issued by NWS Newport/Morehead, NC

Current Version | Previous Version | Graphics & Text | Print | Product List | Glossary Off
Versions: 1 2 3 4 5 6 7 8 9 10 11 12 13 14 15 16 17 18 19 20 21 22 23 24 25 26 27 28 29 30 31 32 33 34 35 36 37 38 39 40 41 42 43 44 45 46 47 48 49 50

000
ASUS42 KMHX 191312
RWRMHX
WEATHER ROUNDUP FOR EASTERN NORTH CAROLINA
NATIONAL WEATHER SERVICE NEWPORT/MOREHEAD CITY NC
900 AM EDT SUN APR 19 2015

NOTE: "FAIR" INDICATES FEW OR NO CLOUDS BELOW 12,000 FEET
WITH NO SIGNIFICANT WEATHER AND/OR OBSTRUCTIONS TO VISIBILITY

NCZ015>017-031-032-045>047-102-103-191400-
NORTH COAST

CITY           SKY/WX    TMP DP  RH WIND       PRES   REMARKS
EDENTON        PTSUNNY   63  63  97 E9        30.07R
ELIZABETH CITY MOSUNNY   62  58  86 NE10      30.08S
KITTY HAWK     PTSUNNY   57  57 100 NE8       30.06F
MANTEO         PTSUNNY   60  56  88 NE15      30.07F

$$

NCZ045>047-081-094-103-104-191400-
CENTRAL COAST

CITY           SKY/WX    TMP DP  RH WIND       PRES   REMARKS
FRISCO         PTSUNNY   64  61  90 E7        30.03F
SWANQUARTER      N/A     68 N/A N/A NE5       30.00S

$$

NCZ095-097-098-100-101-191400-
SOUTHERN COAST

CITY           SKY/WX    TMP DP  RH WIND       PRES   REMARKS
BEAUFORT       PTSUNNY   70  66  87 NE7       30.02S
CEDAR ISLAND     N/A     68 N/A N/A NE7       30.06S
JACKSONVILLE   PTSUNNY   70  65  84 E5        30.01R
PINEY ISLAND   CLOUDY   N/A N/A N/A E12       30.02S
WILMINGTON     CLOUDY    70  65  84 E7        30.00S


$$

NCZ011>013-027>030-043-044-078>080-089-090>093-098-191400-
COASTAL PLAIN

CITY           SKY/WX    TMP DP  RH WIND       PRES   REMARKS
AHOSKIE        MOSUNNY   63  60  91 NE8       30.07R
CLINTON        CLOUDY    67  66  95 E3        30.02S
ELIZABETHTOWN  CLOUDY    66  66 100 CALM      30.01R
GOLDSBORO      CLOUDY    67  66  96 E8        30.01R
GREENVILLE     CLOUDY    64  64 100 E3        30.06R FOG
HAVELOCK       CLOUDY    70  65  84 E6        30.03S
KENANSVILLE    PTSUNNY   67  65  93 CALM      30.03S
KINSTON        CLOUDY    66  66 100 E6        30.04R FOG
NEW BERN       CLOUDY    69  65  86 E7        30.03F
RICHLANDS      PTSUNNY   68  63  83 NE7       30.02S
ROCKY MOUNT    CLOUDY    65  65 100 E5        30.04R FOG
WASHINGTON     CLOUDY    64  63  96 E3        30.04S
WHITEVILLE     CLOUDY    67  65  91 NE7       29.98F

$$

AMZ130-135-150-152-154-156-158-170-250-252-270-ANZ085-086-088-633-658-670-191400-
MARINE OBSERVATIONS

STATION/POSITION TIME  TEMP    WIND        PRES    WAVE   SWELL
                       AIR SEA DIR/SP/G            HT/PER HT/PER
                 (UTC) (F)     (DEG/KT/KT) (MB)    (FT/S) (FT/S)
CHESAPEAKE LIGHT 1300   54      80/ 16/ 17 1019.2
64 E VA BEACH    1250   62 56   50/ 12/ 14 1018.2    4/12   3/12
DUCK             1200   55 56   40/ 15/ 19 1017.6
2 E DUCK         1211      56                N/A     3/14   2/14
10 NE DUCK       NOT AVBL
OREGON INLET     1200   57 61   10/  8/ 11 1017.7
HATTERAS CG      1200   65 67   50/  5/  8 1016.7
DIAMOND BUOY     1250   72 76   60/ 14/ 16 1016.8    4/13   3/13
CAPE LOOKOUT     1300   68      60/  5/  6 1016.0
BEAUFORT LAB     1200   69 64   40/  4/  6 1015.5
27 SE WRIGHTSVLE 1200   70 72  110/ 12/ 14   N/A
5 SE WRIGHTSVLE  1200   66 65   70/ 10/ 12 1015.5
225 S CAPE HAT   1250   72 75  100/  8/ 10 1016.0    4/13   3/13
41 SE CHARLESTON 1250   74 75   90/ 10/ 10 1013.8    3/ 8   3/ 8

$$



USA.gov is the U.S. government's official web portal to all federal, state and local government web resources and services.